Powrót do katalogu

SKYNET 4F

AktywnyMilitariaGEO
NORAD 26695·PAYLOAD·🇬🇧 United Kingdom

Wystrzelony Feb 7, 2001 z Guiana Space Centre

Loading…

TLE

ŚwieżeSource: Space-Track

Epoka: Sep 14, 2026, 17:46 UTC

1 26695U 01005B   26257.74086744 -.00000231  00000-0  00000-0 0  9993
2 26695  12.2194  17.8924 0006683 215.9537 143.6749  0.99148626 93499

Śledź SKYNET 4F w czasie rzeczywistym z AllMySat

Download on the App Store